PEGASUS DEB

Satellite information

Favourite Embed

Satellite Type and Status

DEBRISIN ORBIT

Key statistics

Satellite PEGASUS DEB at a glance.

Uptime

11532

Days in orbit

Revolutions

≈ 14.0

Per day

Orbit

LEO

Low Earth Orbit

Inclination

82.1

Latest

Satellite identification and parameters

Extended collection of information and parameters for PEGASUS DEB.

Object identification

Identified? True

Debris? True

Object name: PEGASUS DEB

International designator: 1994-029AFQ

Object number (NORAD): 39917

Object ID (CCSDS): 39917

Country: UNITED STATES OF AMERICA (US)

Current information (Y/N): Y

RCS size: SMALL

Orbital parameters

Period: 102.879 minutes

Inclination: 82.1207 deg

SMA: 7272.973 km

Apoapsis: 1236.05 km

Periapsis: 553.626 km

RAAN: 109.4622 deg

Eccentricy: 0.04691505

Argument of periapsis: 229.7904 deg

Mean anomaly: 126.1322 deg

Mean motion: 13.99699543 rev/day

Mean motion (dot): 0.0004313 rev/day2

B* drag term: 0.011199675 1/REarth

Two-line elements (TLE)

Creation date: Dec. 11, 2025, 7:14 p.m.

Reference frame: TEME

Reference center: EARTH

Epoch: Dec. 11, 2025, 2:59 p.m. UTC

TLE line 0: 0 PEGASUS DEB

TLE line 1: 1 39917U 94029AFQ 25345.62454383 .00043130 00000-0 11200-1 0 9993

TLE line 2: 2 39917 82.1207 109.4622 0469150 229.7904 126.1322 13.99699543 82794

Live tracking on map

Real-time ground track for satellite PEGASUS DEB.

In-orbit conjunctions

A list of the most updated potential collisions computed for object PEGASUS DEB.

Target Orbit TCA Probability of collision Miss distance Type
COSMOS 1048 LEO 2025-01-07 09:23:06 0.0001874086 419.0 (m) PAYLOAD
FENGYUN 1C DEB SSO 2024-09-25 22:08:25 0.001062393 158.0 (m) DEBRIS
OBJECT M SSO 2024-07-06 22:56:55 0.0006904201 122.0 (m) UNKNOWN

Associated space launch

PEGASUS DEB was lifted into orbit during the mission ‘Pegasus HAPS | Space Test Experiments Platform 2 (STEP-2)’, on board a Pegasus HAPS space rocket.

The launch took place on May 19, 1994, 5:03 p.m. from Edwards Air Force Base.

For more information about the launch, click the button.

Launch to space Pegasus HAPS | Space Test Experiments Platform 2 (STEP-2)
Pegasus HAPS | Space Test Experiments Platform 2 (STEP-2)

Agency: N/A

Status: Launch Successful

Launch date: May 19, 1994, 5:03 p.m. UTC

Rocket: Pegasus HAPS

Launch pad: Edwards Air Force Base

Location: Air launch to orbit

...

Latest news about this satellite

There are no fresh news available about this satellite. Check back as we update our databases every day.


Newsletter sign-up

Weekly statistics, charts and insights to help you stay on top of the space industry.